FW3312 Weather Reports


time (UTC)temp
C
wind
direction
speed
KPH
gust
KPH
rain 1hr
cm
rain 24hr
cm
rain mn
cm
humidity
%
barometer
mb
20260507154043 11 275 6.4 16.1 0.23 0.64 0.64 70 1011.0
20260507153541 11 243 3.2 17.7 0.23 0.61 0.61 68 1009.9
20260507153048 11 170 8.0 14.5 0.23 0.61 0.61 66 1009.5
20260507152538 11 179 4.8 14.5 0.18 0.58 0.58 61 1009.8
20260507152038 12 195 3.2 19.3 0.15 0.53 0.53 60 1009.4
20260507151536 12 210 3.2 24.1 0.10 0.51 0.51 60 1009.2
20260507151034 12 181 12.9 22.5 0.05 0.46 0.46 58 1007.7
20260507150533 12 164 6.4 12.9 0.03 0.43 0.43 57 1010.0
20260507150039 13 246 0.0 8.0 0.03 0.43 0.43 58 1011.8
20260507145033 13 277 6.4 22.5 0.00 0.41 0.41 55 1011.7
20260507144532 13 263 12.9 27.4 0.00 0.41 0.41 53 1010.7
20260507144033 13 249 9.7 27.4 0.00 0.41 0.41 53 1009.5
20260507143533 13 129 11.3 25.7 0.00 0.41 0.41 52 1008.2
20260507143035 13 177 6.4 30.6 0.00 0.41 0.41 53 1008.7
20260507142531 13 228 9.7 27.4 0.00 0.41 0.41 53 1008.7
20260507142032 14 192 11.3 27.4 0.03 0.41 0.41 53 1008.3
20260507141531 14 222 12.9 30.6 0.10 0.41 0.41 53 1007.8
20260507141031 14 156 12.9 33.8 0.10 0.41 0.41 52 1008.0
20260507140532 14 166 16.1 33.8 0.10 0.41 0.41 52 1007.5
20260507140029 14 173 16.1 43.5 0.10 0.41 0.41 53 1007.7
20260507135030 14 149 16.1 32.2 0.10 0.41 0.41 53 1008.2
20260507134531 13 166 16.1 30.6 0.10 0.41 0.41 53 1008.5
20260507134028 13 149 16.1 30.6 0.10 0.41 0.41 56 1008.8
20260507133527 13 187 14.5 25.7 0.10 0.41 0.41 59 1009.2
20260507133027 13 144 14.5 25.7 0.10 0.41 0.41 59 1009.5
20260507132524 13 255 11.3 17.7 0.10 0.41 0.41 57 1010.2
20260507132023 14 156 6.4 22.5 0.08 0.38 0.38 54 1010.7
20260507131530 15 173 9.7 25.7 0.03 0.33 0.33 48 1010.1
20260507131022 16 150 8.0 25.7 0.00 0.30 0.30 44 1010.8
20260507130521 16 276 12.9 25.7 0.00 0.30 0.30 45 1011.5
20260507130018 16 236 8.0 22.5 0.00 0.30 0.30 45 1009.6
20260507125016 16 170 17.7 33.8 0.00 0.30 0.30 45 1006.5
20260507124514 16 147 17.7 33.8 0.00 0.30 0.30 44 1006.2
20260507124016 16 170 16.1 40.2 0.00 0.30 0.30 44 1006.3
20260507123513 16 171 20.9 35.4 0.00 0.30 0.30 45 1006.4
20260507123012 16 160 16.1 33.8 0.00 0.30 0.30 46 1006.4
20260507122510 16 194 11.3 32.2 0.00 0.30 0.30 47 1006.8
20260507122010 16 172 11.3 29.0 0.00 0.30 0.30 48 1006.3
20260507121508 17 196 14.5 29.0 0.00 0.30 0.30 49 1006.0
20260507121007 17 170 11.3 27.4 0.00 0.30 0.30 50 1005.8
20260507120505 17 168 11.3 27.4 0.00 0.30 0.30 55 1005.8
20260507120013 17 148 11.3 20.9 0.00 0.30 0.30 58 1005.3
20260507115002 17 154 12.9 24.1 0.00 0.30 0.30 57 1005.0
20260507114502 17 158 11.3 24.1 0.00 0.30 0.30 57 1004.9
20260507114001 17 149 11.3 27.4 0.00 0.30 0.30 57 1004.8
20260507113500 17 165 12.9 29.0 0.00 0.30 0.30 58 1004.9
20260507113102 17 163 16.1 29.0 0.00 0.30 0.30 58 1004.7
20260507112602 17 163 9.7 27.4 0.00 0.30 0.30 59 1004.7
20260507112101 17 138 17.7 29.0 0.00 0.30 0.30 59 1004.5
20260507111606 17 144 14.5 33.8 0.00 0.30 0.30 59 1004.3
20260507111056 17 158 16.1 33.8 0.00 0.30 0.30 59 1004.0
20260507110556 17 156 16.1 32.2 0.00 0.30 0.30 60 1004.0
20260507105055 17 136 14.5 41.8 0.00 0.30 0.30 61 1003.6
20260507104554 17 253 20.9 32.2 0.00 0.30 0.30 61 1003.4
20260507104054 17 168 14.5 32.2 0.00 0.30 0.30 62 1003.2
20260507103553 17 142 16.1 35.4 0.00 0.30 0.30 61 1003.2
20260507103053 17 153 17.7 38.6 0.00 0.30 0.30 61 1003.1
20260507102552 17 156 19.3 38.6 0.00 0.30 0.30 61 1002.8
20260507102051 17 149 12.9 45.1 0.00 0.30 0.30 62 1002.9
20260507101602 17 156 22.5 45.1 0.00 0.30 0.30 62 1003.0
20260507101050 17 162 19.3 41.8 0.00 0.30 0.30 63 1002.6
20260507100549 17 182 16.1 37.0 0.00 0.30 0.30 65 1002.9
20260507100048 17 175 12.9 33.8 0.00 0.30 0.30 67 1002.7
20260507095046 17 119 16.1 30.6 0.00 0.30 0.30 69 1002.6
20260507094546 17 157 9.7 29.0 0.00 0.30 0.30 70 1002.6
20260507094043 17 198 11.3 29.0 0.00 0.30 0.30 70 1002.7
20260507093543 17 158 14.5 33.8 0.00 0.30 0.30 70 1002.8
20260507093049 17 152 14.5 30.6 0.03 0.30 0.30 70 1002.9
20260507092542 17 135 12.9 25.7 0.20 0.30 0.30 70 1003.0
20260507092040 17 164 9.7 25.7 0.25 0.30 0.30 70 1003.2
20260507091546 17 133 9.7 22.5 0.28 0.30 0.30 70 1002.9
20260507091040 17 161 11.3 22.5 0.28 0.30 0.30 70 1002.8
20260507090538 17 154 9.7 19.3 0.28 0.30 0.30 70 1002.5
20260507090039 17 160 9.7 19.3 0.28 0.30 0.30 70 1002.7
20260507085036 17 147 9.7 22.5 0.28 0.30 0.30 70 1002.2
20260507084635 17 156 11.3 19.3 0.28 0.30 0.30 70 1002.1
20260507084035 17 186 9.7 20.9 0.30 0.30 0.30 69 1002.2
20260507083535 17 161 12.9 25.7 0.30 0.30 0.30 69 1002.5
20260507083034 17 155 9.7 35.4 0.30 0.30 0.30 67 1002.6
20260507082533 18 159 19.3 35.4 0.23 0.23 0.23 57 1002.7
20260507082031 18 206 8.0 16.1 0.05 0.05 0.05 57 1002.8
20260507081541 18 201 6.4 16.1 0.03 0.03 0.03 57 1002.8
20260507081028 19 180 1.6 16.1 0.03 0.03 0.03 57 1003.0
20260507080527 19 235 3.2 16.1 0.03 0.03 0.03 57 1002.4
20260507080027 19 235 8.0 17.7 0.03 0.03 0.03 57 1001.8
20260507075029 19 242 9.7 20.9 0.03 0.03 0.03 57 1001.5
20260507074544 20 190 11.3 20.9 0.03 0.03 0.03 57 1001.6
20260507074028 20 148 8.0 25.7 0.00 0.00 0.00 57 1001.9
20260507073523 20 169 14.5 25.7 0.00 0.00 0.00 56 1001.5
20260507073022 20 208 9.7 27.4 0.00 0.00 0.00 55 1002.2
20260507072524 20 193 9.7 30.6 0.00 0.00 0.00 55 1001.5
20260507072020 21 160 8.0 25.7 0.00 0.00 0.00 54 1001.3
20260507071519 21 198 11.3 25.7 0.00 0.00 0.00 53 1001.3
20260507071018 21 169 11.3 29.0 0.00 0.00 0.00 53 1001.6
20260507070519 21 204 12.9 24.1 0.00 0.00 0.00 52 1001.4
20260507070020 21 193 9.7 24.1 0.00 0.00 0.00 52 1001.5
20260507065013 22 172 11.3 19.3 0.00 0.00 0.00 51 1001.4
20260507064511 22 217 6.4 17.7 0.00 0.00 0.00 51 1001.4
20260507064011 22 179 8.0 19.3 0.00 0.00 0.00 52 1001.4
20260507063510 22 172 6.4 17.7 0.00 0.00 0.00 53 1001.4
20260507063018 22 152 6.4 12.9 0.00 0.00 0.00 56 1001.4
20260507062508 22 296 0.0 0.0 0.00 0.00 0.00 56 1001.0
20260507062009 22 296 0.0 0.0 0.00 0.00 0.00 56 1000.9
20260507061509 22 296 0.0 0.0 0.00 0.00 0.00 56 1000.9
20260507061008 22 296 0.0 0.0 0.00 0.00 0.00 56 1000.9
20260507060508 22 296 0.0 0.0 0.00 0.00 0.00 56 1000.9
20260507060008 22 296 0.0 0.0 0.00 0.00 0.00 57 1000.8
20260507055005 22 296 0.0 0.0 0.00 0.00 0.00 57 1000.9
20260507054505 23 297 0.0 3.2 0.00 0.00 0.00 57 1000.9
20260507054005 23 296 0.0 3.2 0.00 0.00 0.00 57 1001.1
20260507053507 23 297 0.0 1.6 0.00 0.00 0.00 57 1001.2
20260507053004 23 296 0.0 1.6 0.00 0.00 0.00 57 1001.2
20260507052503 23 296 0.0 0.0 0.00 0.00 0.00 57 1001.3
20260507052003 23 296 0.0 0.0 0.00 0.00 0.00 57 1001.5
20260507051503 23 297 0.0 0.0 0.00 0.00 0.00 57 1001.5
20260507051003 23 296 0.0 1.6 0.00 0.00 0.00 57 1001.6
20260507050503 23 297 0.0 1.6 0.00 0.00 0.00 57 1001.5
20260507050008 23 296 0.0 1.6 0.00 0.00 0.00 57 1001.4
20260507045003 23 297 0.0 1.6 0.00 0.00 0.00 58 1001.2
20260507044502 23 296 0.0 1.6 0.00 0.00 0.00 58 1001.3
20260507044002 23 296 0.0 3.2 0.00 0.00 0.00 58 1001.3
20260507043501 23 296 0.0 3.2 0.00 0.00 0.00 58 1001.2
20260507043103 23 296 0.0 1.6 0.00 0.00 0.00 58 1001.3
20260507043001 23 296 0.0 1.6 0.00 0.00 0.00 58 1001.3
20260507042502 23 296 0.0 1.6 0.00 0.00 0.00 58 1001.4
20260507042100 23 296 0.0 3.2 0.00 0.00 0.00 58 1001.5
20260507041604 23 296 0.0 3.2 0.00 0.00 0.00 58 1001.4
20260507041103 23 295 0.0 3.2 0.00 0.00 0.00 58 1001.5
20260507040601 23 294 0.0 3.2 0.00 0.00 0.00 58 1001.3
20260507040058 23 294 0.0 4.8 0.00 0.00 0.00 58 1001.3
20260507035658 23 294 0.0 4.8 0.00 0.00 0.00 58 1001.5
20260507035058 23 293 0.0 3.2 0.00 0.00 0.00 58 1001.6
20260507034601 23 293 0.0 3.2 0.00 0.00 0.00 58 1001.7
20260507034056 23 293 0.0 1.6 0.00 0.00 0.00 58 1001.7
20260507033558 23 293 0.0 1.6 0.00 0.00 0.00 58 1001.8
20260507033104 23 293 0.0 1.6 0.00 0.00 0.00 58 1001.9
20260507032557 23 293 0.0 1.6 0.00 0.00 0.00 58 1002.0
20260507032056 23 293 0.0 4.8 0.00 0.00 0.00 58 1002.0
20260507031606 23 293 0.0 4.8 0.00 0.00 0.00 58 1002.0
20260507031056 23 274 0.0 3.2 0.00 0.00 0.00 58 1001.9
20260507030555 23 329 0.0 1.6 0.00 0.00 0.00 58 1001.9
20260507030057 23 329 0.0 1.6 0.00 0.00 0.00 58 1002.1
20260507025653 23 329 0.0 1.6 0.00 0.00 0.00 58 1002.1
20260507025055 23 329 0.0 0.0 0.00 0.00 0.00 58 1002.1
20260507024628 23 329 0.0 1.6 0.00 0.00 0.00 58 1002.1
20260507024054 23 329 0.0 1.6 0.00 0.00 0.00 58 1002.1
20260507023103 23 329 0.0 1.6 0.00 0.00 0.00 58 1002.1
20260507022553 23 329 0.0 3.2 0.00 0.00 0.00 58 1002.1
20260507022054 23 329 0.0 3.2 0.00 0.00 0.00 58 1002.1
20260507021553 24 291 0.0 6.4 0.00 0.00 0.00 58 1002.0
20260507021057 24 46 1.6 8.0 0.00 0.00 0.00 57 1002.0
20260507020553 24 335 0.0 8.0 0.00 0.00 0.00 57 1001.9
20260507020056 24 284 0.0 6.4 0.00 0.00 0.00 57 1001.9
20260507015652 24 357 1.6 8.0 0.00 0.00 0.00 57 1001.7
20260507015054 24 326 3.2 9.7 0.00 0.00 0.00 57 1001.8
20260507014603 24 24 1.6 9.7 0.00 0.00 0.00 57 1001.7
20260507014056 24 23 1.6 9.7 0.00 0.00 0.00 57 1001.5
20260507013556 24 328 1.6 11.3 0.00 0.00 0.00 57 1001.6
20260507013054 24 348 4.8 11.3 0.00 0.00 0.00 57 1001.5
20260507012555 24 308 4.8 16.1 0.00 0.00 0.00 57 1001.6
20260507012056 24 38 4.8 16.1 0.00 0.00 0.00 56 1001.6
20260507011554 24 347 3.2 12.9 0.00 0.00 0.00 56 1001.5
20260507011054 24 343 3.2 12.9 0.00 0.00 0.00 56 1001.6
20260507011011 24 33 4.8 12.9 0.00 0.00 0.00 56 1001.6
20260507010651 24 359 4.8 20.9 0.00 0.00 0.00 56 1001.5
20260507010051 24 21 6.4 20.9 0.00 0.00 0.00 56 1001.4
20260507005653 24 350 6.4 14.5 0.00 0.00 0.00 57 1001.6
20260507005017 24 352 6.4 14.5 0.00 0.00 0.00 57 1001.5
20260507004518 24 11 4.8 12.9 0.00 0.00 0.00 57 1001.5
20260507004018 25 61 3.2 9.7 0.00 0.00 0.00 56 1001.4
20260507003515 25 29 4.8 9.7 0.00 0.00 0.00 56 1001.5
20260507003013 25 25 3.2 9.7 0.00 0.00 0.00 56 1001.5
20260507002513 25 33 0.0 9.7 0.00 0.00 0.00 56 1001.5
20260507002013 25 42 0.0 11.3 0.00 0.00 0.00 56 1001.5
20260507001521 25 27 4.8 11.3 0.00 0.00 0.00 56 1001.3
20260507001017 25 359 4.8 12.9 0.00 0.00 0.00 56 1001.1
20260507000512 25 49 4.8 16.1 0.00 0.00 0.00 56 1001.1
20260507000016 25 347 3.2 16.1 0.00 0.00 0.00 55 1001.1
20260506235050 25 352 4.8 14.5 0.00 0.00 0.00 55 1000.8
20260506234547 25 49 6.4 14.5 0.00 0.00 0.00 55 1000.7
20260506234047 25 73 4.8 16.1 0.00 0.00 0.00 54 1000.8
20260506233547 25 333 8.0 16.1 0.00 0.00 0.00 54 1000.8
20260506233100 25 360 8.0 17.7 0.00 0.00 0.00 54 1000.8
20260506232546 26 5 4.8 16.1 0.00 0.00 0.00 54 1001.1
20260506232046 26 333 6.4 16.1 0.00 0.00 0.00 53 1001.1
20260506231545 26 27 6.4 14.5 0.00 0.00 0.00 53 1001.0
20260506231045 26 345 6.4 14.5 0.00 0.00 0.00 52 1001.0
20260506230547 26 36 4.8 19.3 0.00 0.00 0.00 52 1000.8
20260506230046 26 355 6.4 16.1 0.00 0.00 0.00 51 1000.9
20260506225648 26 320 8.0 20.9 0.00 0.00 0.00 51 1001.1
20260506225044 26 48 6.4 16.1 0.00 0.00 0.00 50 1001.0
20260506224544 26 6 8.0 16.1 0.00 0.00 0.00 50 1001.2
20260506224043 26 55 4.8 16.1 0.00 0.00 0.00 50 1001.1
20260506223543 27 42 4.8 16.1 0.00 0.00 0.00 50 1001.1
20260506223043 27 300 8.0 20.9 0.00 0.00 0.00 49 1000.8
20260506222543 27 320 9.7 20.9 0.00 0.00 0.00 49 1000.9
20260506222043 27 333 8.0 24.1 0.00 0.00 0.00 49 1000.8
20260506221542 27 329 11.3 20.9 0.00 0.00 0.00 49 1000.9
20260506221041 27 44 11.3 20.9 0.00 0.00 0.00 49 1000.9
20260506220542 27 37 6.4 16.1 0.00 0.00 0.00 49 1001.2
20260506220039 27 357 4.8 11.3 0.00 0.00 0.00 48 1001.4
20260506215638 27 8 8.0 16.1 0.00 0.00 0.00 48 1001.7
20260506215039 27 32 4.8 16.1 0.00 0.00 0.00 48 1001.8
20260506214539 27 335 6.4 17.7 0.00 0.00 0.00 48 1001.7
20260506214039 28 300 6.4 17.7 0.00 0.00 0.00 48 1001.6
20260506213538 28 337 3.2 16.1 0.00 0.00 0.00 48 1001.6
20260506213038 28 10 4.8 14.5 0.00 0.00 0.00 48 1001.7
20260506212538 28 295 6.4 14.5 0.00 0.00 0.00 47 1001.7
20260506212038 28 350 6.4 11.3 0.00 0.00 0.00 47 1001.7
20260506211536 28 350 4.8 11.3 0.00 0.00 0.00 46 1001.8
20260506211038 29 305 3.2 17.7 0.00 0.00 0.00 46 1002.0
20260506210536 29 347 4.8 17.7 0.00 0.00 0.00 45 1001.9
20260506210035 30 321 6.4 16.1 0.00 0.00 0.00 45 1001.9
20260506205537 30 30 6.4 16.1 0.00 0.00 0.00 44 1001.9
20260506205037 30 17 4.8 16.1 0.00 0.00 0.00 44 1002.0
20260506204536 30 356 3.2 16.1 0.00 0.00 0.00 44 1002.0
20260506204033 30 314 3.2 17.7 0.00 0.00 0.00 44 1002.0
20260506203534 30 5 6.4 17.7 0.00 0.00 0.00 44 1001.9
20260506203036 30 313 9.7 16.1 0.00 0.00 0.00 43 1001.9
20260506202635 30 346 4.8 14.5 0.00 0.00 0.00 43 1002.1
20260506202035 30 345 6.4 16.1 0.00 0.00 0.00 43 1002.0
20260506201535 30 310 8.0 19.3 0.00 0.00 0.00 43 1002.0
20260506201034 30 349 8.0 19.3 0.00 0.00 0.00 43 1002.0
20260506200534 30 308 4.8 24.1 0.00 0.00 0.00 43 1002.1
20260506200034 30 15 6.4 24.1 0.00 0.00 0.00 43 1002.1
20260506195533 30 302 6.4 19.3 0.00 0.00 0.00 44 1002.0
20260506195037 30 349 9.7 19.3 0.00 0.00 0.00 44 1002.1
20260506194531 30 315 6.4 16.1 0.00 0.00 0.00 45 1002.2
20260506194031 30 15 4.8 16.1 0.00 0.00 0.00 45 1002.4
20260506193530 30 314 4.8 14.5 0.00 0.00 0.00 44 1002.5
20260506193032 30 344 4.8 14.5 0.00 0.00 0.00 44 1002.5
20260506192630 30 343 4.8 17.7 0.00 0.00 0.00 43 1002.3
20260506192027 30 326 8.0 17.7 0.00 0.00 0.00 43 1002.3
20260506191527 30 116 8.0 17.7 0.00 0.00 0.00 43 1002.3
20260506191038 30 349 6.4 19.3 0.00 0.00 0.00 43 1002.5
20260506190524 30 337 9.7 22.5 0.00 0.00 0.00 43 1002.3
20260506190025 30 44 8.0 22.5 0.00 0.00 0.00 44 1002.4
20260506185524 30 356 8.0 22.5 0.00 0.00 0.00 44 1002.5
20260506185023 30 278 4.8 22.5 0.00 0.00 0.00 44 1002.4
20260506184523 30 360 9.7 29.0 0.00 0.00 0.00 44 1002.6
20260506184023 30 345 9.7 29.0 0.00 0.00 0.00 44 1002.6
20260506183523 30 344 9.7 22.5 0.00 0.00 0.00 43 1002.6
20260506183021 30 288 4.8 17.7 0.00 0.00 0.00 43 1002.6
20260506182621 30 36 8.0 22.5 0.00 0.00 0.00 43 1002.7
20260506182022 30 7 4.8 22.5 0.00 0.00 0.00 44 1002.9
20260506181519 30 346 8.0 22.5 0.00 0.00 0.00 44 1002.8
20260506181020 30 345 9.7 22.5 0.00 0.00 0.00 43 1002.9
20260506180519 31 113 8.0 24.1 0.00 0.00 0.00 42 1003.0
20260506180017 30 345 11.3 24.1 0.00 0.00 0.00 42 1003.1
20260506175517 30 33 8.0 27.4 0.00 0.00 0.00 42 1003.2
20260506175019 31 269 8.0 22.5 0.00 0.00 0.00 42 1003.1
20260506174516 30 314 9.7 20.9 0.00 0.00 0.00 42 1003.2
20260506174015 30 35 3.2 17.7 0.00 0.00 0.00 42 1003.4
20260506173515 30 326 8.0 20.9 0.00 0.00 0.00 43 1003.6
20260506173014 30 340 8.0 20.9 0.00 0.00 0.00 43 1003.7
20260506172613 30 2 9.7 22.5 0.00 0.00 0.00 43 1004.0
20260506172013 30 15 9.7 22.5 0.00 0.00 0.00 43 1004.1
20260506171513 30 300 4.8 25.7 0.00 0.00 0.00 43 1004.2
20260506171013 30 296 12.9 24.1 0.00 0.00 0.00 43 1004.4
20260506170513 30 324 8.0 16.1 0.00 0.00 0.00 43 1004.3
20260506170012 30 348 8.0 19.3 0.00 0.00 0.00 43 1004.3
20260506165515 30 335 8.0 19.3 0.00 0.00 0.00 43 1004.3
20260506165011 30 342 8.0 19.3 0.00 0.00 0.00 44 1004.3
20260506164510 30 2 8.0 19.3 0.00 0.00 0.00 43 1004.4
20260506164009 30 21 4.8 20.9 0.00 0.00 0.00 44 1004.4
20260506163508 30 322 6.4 20.9 0.00 0.00 0.00 44 1004.7
20260506163014 30 338 6.4 24.1 0.00 0.00 0.00 45 1004.7
20260506162607 30 352 9.7 20.9 0.00 0.00 0.00 45 1004.8
20260506162005 29 357 4.8 19.3 0.00 0.00 0.00 46 1004.9
20260506161503 29 344 11.3 0.0 0.00 0.00 0.00 46 1004.9
20260506161000 29 45 8.0 19.3 0.00 0.00 0.00 46 1005.0
20260506160559 29 338 11.3 20.9 0.00 0.00 0.00 46 1005.0
20260506160059 29 72 8.0 22.5 0.00 0.00 0.00 46 1005.1
20260506155557 29 16 4.8 22.5 0.00 0.00 0.00 46 1005.2
20260506155057 28 345 6.4 20.9 0.00 0.00 0.00 46 1005.2
20260506154610 28 354 9.7 20.9 0.00 0.00 0.00 46 1005.5